Flag for Germany Weather past 2 weeks in Hamburg, Hamburg, Germany

Now
81 °F

Passing clouds.


Feels Like: 81 °F
Forecast: 61 / 79 °F
Wind: 16 mph from Northeast

Location: Hamburg-Fuhlsbuettel

Current Time: Jul 23, 2014 at 4:49:04 PM

Latest Report: Jul 23, 2014 at 4:20 PM


Visibility: N/A

Pressure: 30.09 "Hg

Humidity: 42%

Dew point: 55 °F

Location of HamburgLocation

Historic Weather in Hamburg — Graph

°F

Hamburg temperature yesterday

Maximum temperature yesterday: 82 °F (at 3:20 PM)
Minimum temperature yesterday: 61 °F (at 2:20 AM)
Average temperature yesterday: 72 °F

Past Weeks' High & Low Weather Summary

 TemperatureHumidityPressure
High88 °F (Jul 19, 2:20 PM)100% (Jul 8, 9:20 PM)30.18 "Hg (Jul 8, 9:20 PM)
Low52 °F (Jul 17, 4:20 AM)29% (Jul 19, 6:20 PM)29.59 "Hg (Jul 9, 2:50 PM)
Average70 °F71%29.94 "Hg
* Reported Jul 8 3:20 PM — Jul 23 3:20 PM, Hamburg, Weather by CustomWeather, © 2014

Note: Actual official high and low records may vary slightly from our data, if they occured in-between our weather recording intervals... More about our weather records

Advertising

Hamburg weather history for previous 24 hours

 ConditionsComfort  
Time TempWeatherWind HumidityBarometerVisibility
3:20 PM
Jul 23
81 °FPassing clouds.16 mph37%30.12 "HgN/A
6:20 AM63 °FPassing clouds.5 mph88%30.18 "HgN/A
5:50 AM61 °FPassing clouds.3 mph88%30.18 "HgN/A
5:20 AM61 °FPassing clouds.5 mph94%30.18 "HgN/A
4:50 AM63 °FClear.7 mph88%30.18 "Hg10 mi
4:20 AM63 °FClear.8 mph88%30.18 "Hg10 mi
3:50 AM63 °FPassing clouds.5 mph88%30.18 "HgN/A
3:20 AM63 °FPassing clouds.6 mph94%30.18 "HgN/A
2:50 AM63 °FClear.5 mph94%30.18 "Hg10 mi
2:20 AM63 °FPassing clouds.5 mph88%30.18 "HgN/A
1:50 AM64 °FPassing clouds.6 mph83%30.18 "HgN/A
6:50 PM
Jul 22
79 °FPartly sunny.14 mph51%30.09 "HgN/A
6:20 PM79 °FPartly sunny.18 mph51%30.09 "HgN/A
5:50 PM81 °FPartly sunny.16 mph48%30.09 "HgN/A
5:20 PM81 °FPartly sunny.18 mph42%30.09 "HgN/A
4:50 PM82 °FPartly sunny.17 mph45%30.09 "HgN/A
4:20 PM81 °FPartly sunny.17 mph48%30.09 "HgN/A
Weather by CustomWeather, © 2014

See weather overviewHow to use our weather pages